TimeEDT,TemperatureF,Dew PointF,Humidity,Sea Level PressureIn,VisibilityMPH,Wind Direction,Wind SpeedMPH,Gust SpeedMPH,PrecipitationIn,Events,Conditions,WindDirDegrees,DateUTC
12:03 AM,75.2,75.2,100,30.15,10.0,North,3.5,-,N/A,,Mostly Cloudy,350,2013-08-26 04:03:00
12:13 AM,77.0,75.2,94,30.15,10.0,North,5.8,-,N/A,,Scattered Clouds,350,2013-08-26 04:13:00
12:23 AM,77.0,77.0,100,30.15,10.0,North,4.6,-,N/A,,Mostly Cloudy,10,2013-08-26 04:23:00
12:36 AM,77.0,77.0,100,30.15,10.0,NNE,4.6,-,N/A,Rain,Light Rain,30,2013-08-26 04:36:00
12:53 AM,77.0,77.0,100,30.14,10.0,NNE,4.6,-,N/A,,Scattered Clouds,20,2013-08-26 04:53:00
12:58 AM,77.5,77.2,99,30.14,10.0,NNE,4.6,-,0.03,,Partly Cloudy,20,2013-08-26 04:58:00
1:58 AM,76.8,76.5,99,30.12,10.0,NE,4.6,-,N/A,,Clear,50,2013-08-26 05:58:00
2:58 AM,76.5,75.9,98,30.11,10.0,NE,5.8,-,N/A,,Clear,50,2013-08-26 06:58:00
3:50 AM,75.2,75.2,100,30.09,10.0,ENE,9.2,-,N/A,Rain,Light Rain,70,2013-08-26 07:50:00
3:58 AM,75.9,75.6,99,30.10,10.0,East,5.8,-,0.01,Rain,Light Rain,80,2013-08-26 07:58:00
4:03 AM,75.2,75.2,100,30.09,10.0,ENE,4.6,-,N/A,,Partly Cloudy,70,2013-08-26 08:03:00
4:58 AM,76.3,75.4,97,30.10,10.0,NE,5.8,-,0.00,,Clear,50,2013-08-26 08:58:00
5:58 AM,76.1,75.0,96,30.10,6.0,NE,4.6,-,N/A,,Clear,50,2013-08-26 09:58:00
6:58 AM,73.4,73.0,99,30.10,10.0,Variable,1.2,-,N/A,,Clear,0,2013-08-26 10:58:00
7:58 AM,75.4,75.2,99,30.10,5.0,NNE,4.6,-,N/A,,Clear,30,2013-08-26 11:58:00
8:58 AM,80.6,78.8,94,30.11,2.5,North,10.4,-,N/A,,Mostly Cloudy,10,2013-08-26 12:58:00
9:08 AM,80.6,77.0,89,30.11,3.0,NE,3.5,-,N/A,,Mostly Cloudy,50,2013-08-26 13:08:00
9:58 AM,82.8,77.4,84,30.12,10.0,NE,10.4,-,N/A,,Partly Cloudy,40,2013-08-26 13:58:00
10:58 AM,83.8,76.1,77,30.12,10.0,ENE,9.2,-,N/A,,Scattered Clouds,70,2013-08-26 14:58:00
11:18 AM,86.0,77.0,74,30.11,10.0,ENE,9.2,-,N/A,,Scattered Clouds,60,2013-08-26 15:18:00
11:58 AM,85.5,76.3,74,30.12,10.0,East,9.2,-,N/A,,Clear,90,2013-08-26 15:58:00
12:58 PM,87.3,74.8,66,30.12,10.0,ENE,9.2,-,N/A,,Clear,70,2013-08-26 16:58:00
1:58 PM,88.0,76.1,68,30.11,10.0,NE,10.4,-,N/A,,Scattered Clouds,50,2013-08-26 17:58:00
2:58 PM,86.4,74.8,68,30.09,10.0,ENE,11.5,-,N/A,,Partly Cloudy,60,2013-08-26 18:58:00
3:23 PM,86.0,75.2,70,30.07,10.0,NE,10.4,-,N/A,,Mostly Cloudy,40,2013-08-26 19:23:00
3:28 PM,86.0,75.2,70,30.07,10.0,NE,10.4,-,N/A,,Scattered Clouds,40,2013-08-26 19:28:00
3:38 PM,86.0,77.0,74,30.07,10.0,NE,8.1,-,N/A,,Mostly Cloudy,50,2013-08-26 19:38:00
3:48 PM,86.0,77.0,74,30.06,10.0,NE,9.2,-,N/A,,Scattered Clouds,40,2013-08-26 19:48:00
3:58 PM,86.0,75.2,70,30.07,10.0,NE,9.2,-,N/A,,Mostly Cloudy,50,2013-08-26 19:58:00
4:23 PM,86.0,75.2,70,30.05,10.0,ENE,10.4,-,N/A,,Scattered Clouds,60,2013-08-26 20:23:00
4:33 PM,86.0,75.2,70,30.05,10.0,ENE,11.5,-,N/A,,Mostly Cloudy,60,2013-08-26 20:33:00
4:38 PM,87.8,75.2,66,30.05,10.0,ENE,8.1,-,N/A,,Scattered Clouds,70,2013-08-26 20:38:00
4:48 PM,87.8,75.2,66,30.05,10.0,ENE,13.8,17.3,N/A,,Mostly Cloudy,60,2013-08-26 20:48:00
4:53 PM,86.0,75.2,70,30.05,10.0,ENE,9.2,17.3,N/A,,Mostly Cloudy,60,2013-08-26 20:53:00
4:58 PM,86.2,75.2,70,30.07,10.0,ENE,8.1,17.3,N/A,,Mostly Cloudy,60,2013-08-26 20:58:00
5:01 PM,84.2,75.2,74,30.06,10.0,ENE,11.5,-,N/A,,Light Drizzle,70,2013-08-26 21:01:00
5:06 PM,84.2,77.0,79,30.05,10.0,ENE,12.7,-,N/A,,Light Drizzle,60,2013-08-26 21:06:00
5:10 PM,84.2,77.0,79,30.05,10.0,ENE,13.8,-,N/A,,Mostly Cloudy,70,2013-08-26 21:10:00
5:30 PM,84.2,73.4,70,30.05,10.0,ENE,15.0,-,N/A,,Light Drizzle,70,2013-08-26 21:30:00
5:39 PM,84.2,73.4,70,30.05,10.0,East,10.4,20.7,N/A,,Partly Cloudy,80,2013-08-26 21:39:00
5:58 PM,85.3,74.7,70,30.06,10.0,ENE,10.4,-,0.00,,Clear,70,2013-08-26 21:58:00
6:58 PM,82.4,73.0,73,30.06,10.0,East,6.9,-,N/A,,Clear,100,2013-08-26 22:58:00
7:58 PM,80.6,74.1,81,30.06,10.0,ESE,6.9,-,N/A,,Clear,110,2013-08-26 23:58:00
8:58 PM,79.9,75.0,85,30.08,10.0,ESE,6.9,-,N/A,,Partly Cloudy,110,2013-08-27 00:58:00
9:13 PM,78.8,73.4,83,30.07,10.0,East,9.2,18.4,N/A,,Light Drizzle,100,2013-08-27 01:13:00
9:25 PM,77.0,73.4,89,30.08,10.0,East,10.4,17.3,N/A,,Mostly Cloudy,100,2013-08-27 01:25:00
9:32 PM,77.0,73.4,89,30.08,2.5,East,18.4,26.5,N/A,Rain,Light Rain,100,2013-08-27 01:32:00
9:37 PM,77.0,73.4,89,30.08,1.2,East,8.1,26.5,N/A,Rain,Light Rain,90,2013-08-27 01:37:00
9:42 PM,77.0,73.4,89,30.07,2.0,ESE,4.6,26.5,N/A,Rain,Light Rain,110,2013-08-27 01:42:00
9:47 PM,77.0,73.4,89,30.07,7.0,ESE,4.6,-,N/A,Rain,Light Rain,110,2013-08-27 01:47:00
9:48 PM,77.0,75.2,94,30.08,9.0,ESE,4.6,-,N/A,,Mostly Cloudy,110,2013-08-27 01:48:00
9:58 PM,77.2,74.7,92,30.08,10.0,East,3.5,-,0.01,,Overcast,100,2013-08-27 01:58:00
10:58 PM,76.1,75.9,99,30.09,10.0,Calm,Calm,-,N/A,,Mostly Cloudy,0,2013-08-27 02:58:00
11:58 PM,75.2,75.0,99,30.09,7.0,SSE,6.9,-,N/A,,Partly Cloudy,150,2013-08-27 03:58:00